Normandy Park, Washington, United States
Lat: 47.44N, Lon: 122.34W
Wx Zone: WAZ508
Local Info
Past Weather Observations for Today

NOTE: This archive is for the closest National Weather Service station to Normandy Park. Information may differ from the station used for current weather conditions.

Click here for Long-term Archive

Time Weather Temperature Dewpoint Humidity Pressure Winds Precip Visibility
18:53
Mostly Cloudy
72°F / 22°C 59°F / 15°C 65% 30.04 in
(1017 mb)
SW 3.5 mph
(SW 6 kph)
- 10SM
17:53
Mostly Cloudy
72°F / 22°C 59°F / 15°C 65% 30.06 in
(1018 mb)
SW 4.6 mph
(SW 7 kph)
- 10SM
16:53
Mostly Cloudy
73°F / 23°C 59°F / 15°C 61% 30.06 in
(1018 mb)
SSW 5.8 mph
(SSW 9 kph)
- 10SM
15:53
Mostly Cloudy
73°F / 23°C 57°F / 14°C 57% 30.09 in
(1019 mb)
WNW 6.9 mph
(WNW 11 kph)
- 10SM
14:53
Mostly Cloudy
73°F / 23°C 57°F / 14°C 57% 30.09 in
(1019 mb)
SW 9.2 mph
(SW 15 kph)
- 10SM
14:26
Mostly Cloudy
72°F / 22°C 57°F / 14°C 61% 30.09 in
(1019 mb)
S 8.1 mph
(S 13 kph)
- 10SM
13:53
Mostly Cloudy
72°F / 22°C 57°F / 14°C 61% 30.09 in
(1019 mb)
S 11.5 mph
(S 19 kph)
- 10SM
12:53
Overcast
68°F / 20°C 57°F / 14°C 69% 30.12 in
(1020 mb)
SW 8.1 mph
(SW 13 kph)
- 10SM
11:53
Overcast
66°F / 19°C 57°F / 14°C 73% 30.12 in
(1020 mb)
SW 5.8 mph
(SW 9 kph)
- 10SM
10:53
Overcast
64°F / 18°C 57°F / 14°C 78% 30.15 in
(1021 mb)
SSW 5.8 mph
(SSW 9 kph)
- 7SM
10:43
Overcast
66°F / 19°C 57°F / 14°C 73% 30.12 in
(1020 mb)
SSW 6.9 mph
(SSW 11 kph)
- 7SM
09:53
Mostly Cloudy
64°F / 18°C 57°F / 14°C 78% 30.12 in
(1020 mb)
SW 6.9 mph
(SW 11 kph)
- 7SM
09:41
Overcast
63°F / 17°C 57°F / 14°C 83% 30.12 in
(1020 mb)
Variable 5.8 mph
(Variable 9 kph)
- 10SM
08:53
Overcast
63°F / 17°C 55°F / 13°C 77% 30.12 in
(1020 mb)
SE 8.1 mph
(SE 13 kph)
- 7SM
07:53
Overcast
61°F / 16°C 55°F / 13°C 83% 30.12 in
(1020 mb)
S 4.6 mph
(S 7 kph)
- 10SM
06:53
Overcast
61°F / 16°C 55°F / 13°C 83% 30.12 in
(1020 mb)
S 5.8 mph
(S 9 kph)
- 10SM
05:53
Overcast
61°F / 16°C 55°F / 13°C 83% 30.09 in
(1019 mb)
S 6.9 mph
(S 11 kph)
- 10SM
05:38
Mostly Cloudy
61°F / 16°C 55°F / 13°C 83% 30.09 in
(1019 mb)
S 8.1 mph
(S 13 kph)
- 10SM
04:53
Partly Cloudy
59°F / 15°C 55°F / 13°C 88% 30.09 in
(1019 mb)
SSE 4.6 mph
(SSE 7 kph)
- 10SM
04:13
Mostly Cloudy
57°F / 14°C 55°F / 13°C 94% 30.09 in
(1019 mb)
SSW 3.5 mph
(SSW 6 kph)
- 10SM
03:53
Partly Cloudy
57°F / 14°C 55°F / 13°C 94% 30.09 in
(1019 mb)
SSE 3.5 mph
(SSE 6 kph)
- 10SM
02:53
Clear
59°F / 15°C 54°F / 12°C 82% 30.09 in
(1019 mb)
SW 4.6 mph
(SW 7 kph)
- 10SM
01:53
Clear
61°F / 16°C 55°F / 13°C 83% 30.06 in
(1018 mb)
Calm - 10SM
00:53
Partly Cloudy
63°F / 17°C 55°F / 13°C 77% 30.06 in
(1018 mb)
SW 4.6 mph
(SW 7 kph)
- 10SM
Time Weather Temperature Dewpoint Humidity Pressure Winds Precip Visibility


Weather for websites

WeatherForYou.com, LLC is not responsible for any damages or problems caused by this service. Current weather conditions are obtained from the closest station including government and personal stations which may have varying degrees of accuracy. Weather forecasts are derived from the NOAA NDFD. Like all things, this site belongs to Jesus Christ... He just trusts me to maintain it. If you have any questions or comments email webmaster@weatherforyou.com

Copyright © 2014, WeatherForYou.com LLC. All rights reserved.